Cape Cod CGAS, MA

4:19 AM EDT on April 21, 2018 (GMT -0400)
Cape Cod Coast Guard Air Station

Weather History for KFMH - September, 2012

Change the Weather History Date:

Sunday, September 30, 2012

  Actual Average Record
Temperature  
Mean Temperature 58 °F -  
Max Temperature 62 °F 64 °F 78 °F (2010)
Min Temperature 53 °F 46 °F 33 °F (2000)
Degree Days  
Heating Degree Days 8    
Growing Degree Days 8 (Base 50)    
Moisture  
Dew Point 55 °F    
Average Humidity 95    
Maximum Humidity 100    
Minimum Humidity 75    
Precipitation  
Precipitation 0.39 in - - ()
Sea Level Pressure  
Sea Level Pressure 29.80 in    
Wind  
Wind Speed 7 mph (NNW)    
Max Wind Speed 17 mph    
Max Gust Speed 17 mph    
Visibility 8 miles    
Events Rain    
Averages and records for this station are not official NWS values.
T = Trace of Precipitation, MM = Missing Value Source: NWS Daily Summary

Daily Weather History Graph

Daily Weather History Graph

Search for Another Location

Airport or City:

Astronomy

Sep. 30, 2012 Rise Set
Actual Time 6:38 AM EDT 6:24 PM EDT
Civil Twilight 6:10 AM EDT 6:52 PM EDT
Nautical Twilight 5:38 AM EDT 7:24 PM EDT
Astronomical Twilight 5:05 AM EDT 7:57 PM EDT
Moon 6:25 PM EDT (9/30) 7:06 AM EDT (9/30)
Length of Visible Light 12h 41m
Length of Day
11h 46m
Full, 100% of the Moon is Illuminated
Sep 30
Full
Oct 8
Last Quarter
Oct 15
New
Oct 21
First Quarter
Oct 29
Full

Hourly Weather History & Observations

Time (EDT) Temp. Dew Point Humidity Pressure Visibility Wind Dir Wind Speed Gust Speed Precip Events Conditions
12:15 AM 55.4 °F 53.6 °F 94% 29.90 in 10.0 mi ENE 5.8 mph - N/A   Overcast
12:35 AM 55.4 °F 55.4 °F 100% 29.89 in 10.0 mi NE 5.8 mph - N/A   Overcast
12:55 AM 55.4 °F 55.4 °F 100% 29.89 in 10.0 mi NE 4.6 mph - N/A   Overcast
1:15 AM 55.4 °F 55.4 °F 100% 29.90 in 10.0 mi NE 5.8 mph - N/A   Overcast
1:55 AM 55.4 °F 55.4 °F 100% 29.89 in 10.0 mi NE 4.6 mph - N/A   Overcast
2:15 AM 55.4 °F 55.4 °F 100% 29.88 in 10.0 mi NE 4.6 mph - N/A   Overcast
2:35 AM 57.2 °F 55.4 °F 94% 29.88 in 10.0 mi NE 4.6 mph - N/A   Overcast
2:55 AM 55.4 °F 55.4 °F 100% 29.87 in 10.0 mi North 3.5 mph - N/A   Overcast
3:15 AM 55.4 °F 55.4 °F 100% 29.87 in 10.0 mi NNE 4.6 mph - N/A   Overcast
3:35 AM 55.4 °F 55.4 °F 100% 29.86 in 10.0 mi NNE 3.5 mph - N/A   Overcast
3:55 AM 57.2 °F 55.4 °F 94% 29.87 in 9.0 mi North 3.5 mph - N/A   Overcast
4:15 AM 57.2 °F 55.4 °F 94% 29.86 in 10.0 mi North 3.5 mph - N/A   Overcast
4:35 AM 55.4 °F 55.4 °F 100% 29.85 in 10.0 mi NNE 4.6 mph - N/A   Overcast
4:55 AM 55.4 °F 55.4 °F 100% 29.85 in 10.0 mi North 6.9 mph - N/A Rain Light Rain
5:15 AM 55.4 °F 55.4 °F 100% 29.85 in 2.0 mi NNE 6.9 mph - 0.07 in Rain Heavy Rain
5:35 AM 55.4 °F 55.4 °F 100% 29.84 in 4.0 mi NNE 6.9 mph - 0.13 in Rain Light Rain
5:55 AM 55.4 °F 55.4 °F 100% 29.83 in 7.0 mi NNE 6.9 mph - 0.15 in Rain Light Rain
6:15 AM 55.4 °F 55.4 °F 100% 29.83 in 6.0 mi NNE 6.9 mph - 0.01 in Rain Light Rain
6:35 AM 55.4 °F 55.4 °F 100% 29.83 in 5.0 mi North 5.8 mph - 0.04 in Rain Light Rain
6:55 AM 55.4 °F 55.4 °F 100% 29.83 in 5.0 mi North 6.9 mph - 0.07 in Rain Light Rain
7:15 AM 55.4 °F 55.4 °F 100% 29.83 in 5.0 mi North 6.9 mph - 0.01 in Rain Light Rain
7:35 AM 55.4 °F 55.4 °F 100% 29.83 in 3.0 mi NNE 5.8 mph - 0.06 in Rain Light Rain
7:55 AM 55.4 °F 55.4 °F 100% 29.83 in 2.5 mi NE 10.4 mph - 0.09 in Rain Light Rain
8:15 AM 55.4 °F 55.4 °F 100% 29.83 in 4.0 mi North 6.9 mph - 0.01 in Rain Light Rain
8:35 AM 55.4 °F 55.4 °F 100% 29.82 in 3.0 mi North 6.9 mph - 0.03 in Rain Light Rain
8:55 AM 55.4 °F 55.4 °F 100% 29.82 in 1.0 mi NNE 9.2 mph - 0.09 in Rain Rain
9:15 AM 55.4 °F 55.4 °F 100% 29.82 in 1.5 mi North 6.9 mph - 0.06 in Rain Rain
9:35 AM 55.4 °F 55.4 °F 100% 29.82 in 2.5 mi NNW 8.1 mph - 0.21 in Rain Rain
9:55 AM 55.4 °F 55.4 °F 100% 29.82 in 1.0 mi North 8.1 mph - 0.37 in Rain Heavy Rain
10:15 AM 55.4 °F 55.4 °F 100% 29.81 in 1.8 mi NNE 8.1 mph - 0.09 in Rain Heavy Rain
10:35 AM 55.4 °F 55.4 °F 100% 29.78 in 2.0 mi NNE 12.7 mph 17.3 mph 0.20 in Rain Heavy Rain
10:55 AM 55.4 °F 55.4 °F 100% 29.77 in 10.0 mi NNE 11.5 mph - 0.22 in Rain Light Rain
11:15 AM 55.4 °F 55.4 °F 100% 29.78 in 9.0 mi North 8.1 mph - N/A Rain Light Rain
11:35 AM 57.2 °F 55.4 °F 94% 29.78 in 5.0 mi North 8.1 mph - 0.01 in Rain Light Rain
11:55 AM 57.2 °F 57.2 °F 100% 29.77 in 10.0 mi North 9.2 mph - 0.02 in   Mostly Cloudy
12:15 PM 59.0 °F 57.2 °F 94% 29.77 in 10.0 mi North 10.4 mph - N/A   Overcast
12:35 PM 59.0 °F 57.2 °F 94% 29.77 in 10.0 mi North 9.2 mph - N/A   Overcast
12:55 PM 59.0 °F 55.4 °F 88% 29.77 in 10.0 mi North 5.8 mph - N/A   Overcast
1:15 PM 59.0 °F 55.4 °F 88% 29.78 in 9.0 mi WNW 8.1 mph - N/A   Overcast
1:35 PM 59.0 °F 57.2 °F 94% 29.77 in 2.5 mi NW 5.8 mph - N/A Rain Light Rain
1:55 PM 57.2 °F 57.2 °F 100% 29.76 in 10.0 mi NW 8.1 mph - N/A   Mostly Cloudy
2:15 PM 57.2 °F 57.2 °F 100% 29.76 in 10.0 mi NNW 5.8 mph - N/A   Overcast
2:35 PM 57.2 °F 55.4 °F 94% 29.75 in 8.0 mi Calm Calm - N/A   Overcast
2:55 PM 59.0 °F 55.4 °F 88% 29.75 in 10.0 mi Calm Calm - N/A   Overcast
3:15 PM 59.0 °F 55.4 °F 88% 29.75 in 10.0 mi West 5.8 mph - N/A   Overcast
3:35 PM 59.0 °F 55.4 °F 88% 29.75 in 10.0 mi WSW 6.9 mph - N/A   Overcast
3:55 PM 59.0 °F 55.4 °F 88% 29.75 in 10.0 mi West 6.9 mph - N/A   Overcast
4:15 PM 59.0 °F 55.4 °F 88% 29.74 in 10.0 mi WSW 5.8 mph - N/A   Overcast
4:35 PM 59.0 °F 55.4 °F 88% 29.75 in 10.0 mi West 8.1 mph - N/A   Overcast
4:55 PM 59.0 °F 55.4 °F 88% 29.75 in 10.0 mi WSW 6.9 mph - N/A   Overcast
5:15 PM 59.0 °F 55.4 °F 88% 29.75 in 10.0 mi West 9.2 mph - N/A   Overcast
5:35 PM 59.0 °F 55.4 °F 88% 29.75 in 10.0 mi WSW 6.9 mph - N/A   Scattered Clouds
5:55 PM 57.2 °F 55.4 °F 94% 29.76 in 10.0 mi WSW 5.8 mph - N/A   Mostly Cloudy
6:15 PM 57.2 °F 53.6 °F 88% 29.76 in 10.0 mi SW 6.9 mph - N/A   Scattered Clouds
6:35 PM 55.4 °F 53.6 °F 94% 29.76 in 10.0 mi SW 5.8 mph - N/A   Scattered Clouds
6:55 PM 53.6 °F 51.8 °F 94% 29.76 in 10.0 mi SW 4.6 mph - N/A   Scattered Clouds
7:15 PM 53.6 °F 51.8 °F 94% 29.76 in 10.0 mi SW 5.8 mph - N/A   Scattered Clouds
7:35 PM 53.6 °F 51.8 °F 94% 29.77 in 10.0 mi SSW 6.9 mph - N/A   Scattered Clouds
7:55 PM 53.6 °F 53.6 °F 100% 29.77 in 10.0 mi SSW 8.1 mph - N/A   Partly Cloudy
8:15 PM 53.6 °F 53.6 °F 100% 29.77 in 10.0 mi SW 9.2 mph - N/A   Partly Cloudy
8:35 PM 55.4 °F 53.6 °F 94% 29.77 in 10.0 mi SSW 8.1 mph - N/A   Scattered Clouds
8:55 PM 55.4 °F 53.6 °F 94% 29.78 in 10.0 mi SW 8.1 mph - N/A   Mostly Cloudy
9:15 PM 57.2 °F 55.4 °F 94% 29.77 in 10.0 mi SW 8.1 mph - N/A   Partly Cloudy
9:35 PM 57.2 °F 53.6 °F 88% 29.77 in 10.0 mi SW 9.2 mph - N/A   Clear
9:55 PM 57.2 °F 53.6 °F 88% 29.78 in 10.0 mi SW 9.2 mph - N/A   Partly Cloudy
10:15 PM 57.2 °F 55.4 °F 94% 29.78 in 10.0 mi SW 10.4 mph - N/A   Scattered Clouds
10:35 PM 57.2 °F 53.6 °F 88% 29.78 in 10.0 mi SW 10.4 mph - N/A   Clear
10:55 PM 57.2 °F 53.6 °F 88% 29.78 in 10.0 mi SW 9.2 mph - N/A   Clear
11:15 PM 57.2 °F 53.6 °F 88% 29.77 in 10.0 mi SW 9.2 mph - N/A   Clear
11:35 PM 55.4 °F 51.8 °F 88% 29.77 in 10.0 mi SSW 8.1 mph - N/A   Clear
11:55 PM 55.4 °F 51.8 °F 88% 29.77 in 10.0 mi SW 9.2 mph - N/A   Partly Cloudy